Regional Weather Roundup
Issued by NWS

Home | Current Version | Previous Version | Text Only | Print | Product List | Glossary On
Versions: 1 2 3 4 5 6 7 8 9 10 11 12 13 14 15 16 17 18 19 20 21 22 23 24 25 26 27 28 29 30 31 32 33 34 35 36 37 38 39 40 41 42 43 44 45 46 47 48 49 50
000
ASUS43 KBIS 151902
RWRND

NORTH DAKOTA REGIONAL WEATHER ROUNDUP
NATIONAL WEATHER SERVICE BISMARCK ND
100 PM CST FRI DEC 15 2017

NOTE: "FAIR" INDICATES FEW OR NO CLOUDS BELOW 12,000 FEET WITH NO
SIGNIFICANT WEATHER AND/OR OBSTRUCTIONS TO VISIBILITY.


NDZ001>003-009>011-017-152000-
NORTHWEST NORTH DAKOTA

CITY           SKY/WX    TMP DP  RH WIND       PRES   REMARKS
WILLISTON      PTSUNNY   37  28  70 W6        29.59F
MINOT          CLOUDY    38  25  59 SW9       29.56F
MINOT AFB      CLOUDY    37  25  62 W8        29.54F
$$

NDZ018>021-031>035-040>046-152000-
SOUTHWEST NORTH DAKOTA

CITY           SKY/WX    TMP DP  RH WIND       PRES   REMARKS
BISMARCK       CLOUDY    39  25  57 SW7       29.62F
DICKINSON      MOSUNNY   44  24  45 W22       29.59F
GARRISON         N/A     38  24  57 W10       29.58F
HETTINGER ARPT CLOUDY    45  23  42 W22G29    29.65F
$$

NDZ004>008-012>016-024-026-027-054-152000-
NORTHEAST NORTH DAKOTA

CITY           SKY/WX    TMP DP  RH WIND       PRES   REMARKS
GRAND FORKS    CLOUDY    20  17  88 S15       29.74F WCI   6
GRND FRKS AFB  FLURRIES  21  17  83 S14       29.72F WCI   8
DEVILS LAKE    CLOUDY    28  25  88 SE6       29.64F
$$

NDZ022-023-025-028>030-036>039-047>053-152000-
SOUTHEAST NORTH DAKOTA

CITY           SKY/WX    TMP DP  RH WIND       PRES   REMARKS
FARGO          CLOUDY    24  20  84 SE8       29.74F WCI  15
JAMESTOWN      CLOUDY    30  27  88 S8        29.65F
$$




USA.gov is the U.S. government's official web portal to all federal, state and local government web resources and services.